Regional Weather Roundup
Issued by NWS

Home | Current Version | Previous Version | Graphics & Text | Print | Product List | Glossary On
Versions: 1 2 3 4 5 6 7 8 9 10 11 12 13 14 15 16 17 18 19 20 21 22 23 24 25 26 27 28 29 30 31 32 33 34 35 36 37 38 39 40 41 42 43 44 45 46 47 48 49 50
000
ASUS43 KLSX 020159
RWRMO

WEATHER SUMMARY FOR MISSOURI
NATIONAL WEATHER SERVICE SPRINGFIELD MO
800 PM CST SUN MAR 01 2015

NOTE: "FAIR" INDICATES FEW OR NO CLOUDS BELOW 12,000 FEET WITH NO
       SIGNIFICANT WEATHER AND/OR OBSTRUCTIONS TO VISIBILITY.
       CURRENT SKY AND/OR WEATHER CONDITIONS ARE NOT AVAILABLE FOR
       CHILLICOTHE AND FARMINGTON.

MOZ001>031-035>038-043-044-053-054-020300-
...NORTHERN AND WESTERN MISSOURI...

CITY           SKY/WX    TMP DP  RH WIND       PRES   REMARKS
KANSAS CTY INT MOCLDY    29  20  69 CALM      30.42R
KANSAS C DTWN  CLEAR     29  20  69 CALM      30.44R
LEE`S SUMMIT   PTCLDY    27  19  72 NW3       30.43R
ST JOSEPH      MOCLDY    27  22  81 CALM      30.44R
CHILLICOTHE      N/A     27  21  78 CALM      30.44R
KIRKSVILLE     CLOUDY    25  19  78 SW5       30.41R WCI  19

$$
MOZ066>068-077>081-088>096-101>105-020300-
...SOUTHWEST MISSOURI...

CITY           SKY/WX    TMP DP  RH WIND       PRES   REMARKS
SPRINGFIELD    MOCLDY    29  23  78 N5        30.39R WCI  24
JOPLIN         PTCLDY    27  22  81 CALM      30.42R

$$
MOZ032>034-039>042-045>050-055>058-069>072-020300-
...CENTRAL MISSOURI...

CITY           SKY/WX    TMP DP  RH WIND       PRES   REMARKS
COLUMBIA       PTCLDY    26  19  74 W3        30.42R
JEFFERSON CITY PTCLDY    27  20  75 NW3       30.45R
ROLLA          CLOUDY    27  22  81 NW8       30.39R WCI  19
SEDALIA        PTCLDY    24  18  77 W3        30.44R
OSAGE BEACH    PTCLDY    27  19  74 CALM      30.42S

$$
MOZ051-052-059>065-020300-
...EAST CENTRAL MISSOURI...

CITY           SKY/WX    TMP DP  RH WIND       PRES   REMARKS
ST LOUIS INTL  MOCLDY    28  21  75 W7        30.42R WCI  21
SPIRIT OF STL  PTCLDY    26  19  74 W5        30.43R WCI  20
ST CHARLES     MOCLDY    28  22  78 W3        30.43R

$$
MOZ072>076-082>087-097>100-106>115-020300-
...SOUTH CENTRAL AND SOUTHEAST MISSOURI...

CITY           SKY/WX    TMP DP  RH WIND       PRES   REMARKS
CAPE GIRARDEAU CLOUDY    34  30  85 N9        30.41R WCI  27
FARMINGTON     CLOUDY    30  25  80 N6        30.43R WCI  24
POPLAR BLUFF   LGT RAIN  36  31  82 NW6       30.38R
WEST PLAINS    CLOUDY    32  27  81 N8        30.38R WCI  25

$$


USA.gov is the U.S. government's official web portal to all federal, state and local government web resources and services.